913  
ASUS41 KALY 241510  
RWRALY  
 
NEW YORK STATE HOURLY WEATHER ROUNDUP  
NATIONAL WEATHER SERVICE ALBANY NY  
1100 AM EDT SUN OCT 24 2021  
 
NOTE: "FAIR" INDICATES FEW OR NO CLOUDS BELOW 12,000 FEET WITH NO  
SIGNIFICANT WEATHER AND/OR NO S TO VISIBILITY
.  
 
NYZ032-033-038>043-046>054-057>066-NYZ062>081-082-084-241600-  
EAST  
 
 
CITY SKY/WX TMP DP RH WIND PRES REMARKS
 
ALBANY MOSUNNY 49 37 63 CALM 30.17S  
GLENS FALLS SUNNY 45 35 68 S7 30.16F  
POUGHKEEPSIE PTSUNNY 50 43 77 CALM 30.18S  
NEWBURGH MOSUNNY 48 45 87 W3 30.19R  
MONTGOMERY SUNNY 50 44 80 CALM 30.17F  
WHITE PLAINS MOSUNNY 52 43 71 CALM 30.18R  
ISLIP MOSUNNY 56 44 64 VRB5 30.19S  
NEW YORK CITY PTSUNNY 56 38 50 NW5 30.18S  
CENTRAL PARK CLOUDY 53 40 61 CALM 30.21S  

 
 
NYZ005>009-017-018-044>046-055-056-241600-  
CENTRAL  
 
 
CITY SKY/WX TMP DP RH WIND PRES REMARKS
 
FULTON SUNNY 49 43 80 S5 30.11F  
SYRACUSE MOSUNNY 52 45 77 E3 30.12F  
ROME SUNNY 47 40 76 SE8 30.15F  
ELMIRA PTSUNNY 50 44 80 CALM 30.11F  
BINGHAMTON CLOUDY 44 40 85 S7 30.11F  
MONTICELLO CLOUDY 42 41 96 SW5 30.16S  

 
 
NYZ026>034-041>043-087-241600-  
NORTH  
 
 
CITY SKY/WX TMP DP RH WIND PRES REMARKS
 
WATERTOWN MOSUNNY 52 39 61 VRB6 30.12S  
FORT DRUM NOT AVBL  
OGDENSBURG FAIR 50 36 57 VRB5 30.10F  
MASSENA SUNNY 48 34 58 SW7 30.14S  
SARANAC LAKE SUNNY 42 32 67 VRB5 30.10S  
PLATTSBURGH SUNNY 48 33 56 VRB5 30.13F  

 
 
NYZ001>004-010>016-019>021-085-241600-  
WEST  
 
 
CITY SKY/WX TMP DP RH WIND PRES REMARKS
 
NIAGARA FALLS SUNNY 52 40 63 S3 30.08S  
BUFFALO PTSUNNY 51 42 71 CALM 30.09R  
DUNKIRK PTSUNNY 52 44 74 S9 30.09S  
JAMESTOWN CLOUDY 44 43 96 SW8 30.09R  
WELLSVILLE PTSUNNY 44 40 85 SW6 30.11R  
ROCHESTER PTSUNNY 53 44 71 SW8 30.10S  
PENN YAN SUNNY 52 43 71 VRB5 30.10F  

 
 
KEY  
WCI = WIND CHILL INDEX  
VSB = VISIBILITY  
HX = HEAT INDEX  

 
 
 
CLICK HERE TO GO TO PREVIOUS BULLETINS.

The Nexlab NY Page
The Nexlab VT Page
The Nexlab MA Page
The Nexlab CT Page Main Text Page